This is the latest recevied weather packets stored in our database for station/object WP3OF-2. If no packets are shown the sender has not sent any weather packets the latest 10 day(s).
| Time | Temp. | Humidity | Pressure | Rain* | Wind** | Luminosity | Snow |
|---|---|---|---|---|---|---|---|
| 1777730192 | 22.22° C | 89% | 1027.1 hPa | 0 mm | - | 954 W/m² | - |
| 1777729889 | 22.22° C | 89% | 1027.1 hPa | 0 mm | - | 933 W/m² | - |
| 1777729586 | 21.67° C | 88% | 1027.1 hPa | 0 mm | - | 868 W/m² | - |
| 1777729282 | 22.22° C | 88% | 1027.1 hPa | 0 mm | - | 831 W/m² | - |
| 1777728979 | 22.78° C | 86% | 1027.1 hPa | 0 mm | - | 827 W/m² | - |
| 1777728676 | 22.22° C | 87% | 1026.7 hPa | 0 mm | - | 816 W/m² | - |
| 1777728372 | 21.67° C | 87% | 1027.1 hPa | 0 mm | - | 789 W/m² | - |
| 1777728064 | 21.67° C | 87% | 1026.7 hPa | 0 mm | - | 748 W/m² | - |
| 1777727760 | 21.11° C | 89% | 1026.7 hPa | 0 mm | - | 726 W/m² | - |
| 1777727458 | 21.11° C | 88% | 1026.7 hPa | 0 mm | - | 695 W/m² | - |
| 1777727155 | 21.11° C | 88% | 1026.3 hPa | 0 mm | - | 685 W/m² | - |
| 1777726853 | 21.67° C | 89% | 1026.7 hPa | 0 mm | - | 653 W/m² | - |
| 1777726549 | 21.67° C | 88% | 1026.3 hPa | 0 mm | - | 624 W/m² | - |
| 1777726247 | 21.11° C | 87% | 1026.3 hPa | 0 mm | - | 600 W/m² | - |
| 1777725943 | 21.11° C | 86% | 1026.3 hPa | 0 mm | - | 563 W/m² | - |
| 1777725640 | 21.11° C | 86% | 1026.3 hPa | 0 mm | - | 471 W/m² | - |
| 1777725338 | 21.67° C | 86% | 1026 hPa | 0 mm | - | 439 W/m² | - |
| 1777725035 | 21.11° C | 85% | 1026 hPa | 0 mm | - | 409 W/m² | - |
| 1777724731 | 21.11° C | 84% | 1026 hPa | 0 mm | - | 376 W/m² | - |
| 1777724429 | 21.11° C | 82% | 1026 hPa | 0 mm | - | 357 W/m² | - |
| 1777724126 | 21.11° C | 84% | 1026 hPa | 0 mm | - | 338 W/m² | - |
| 1777723823 | 20.56° C | 83% | 1026 hPa | 0 mm | - | 325 W/m² | - |
| 1777723520 | 21.11° C | 83% | 1026 hPa | 0 mm | - | 298 W/m² | - |
| 1777723217 | 21.11° C | 82% | 1025.6 hPa | 0 mm | - | 278 W/m² | - |
| 1777722915 | 20.56° C | 81% | 1025.6 hPa | 0 mm | - | 260 W/m² | - |
* Rain latest hour (hover to see other rain measurements)
** Current wind speed in m/s (hover to see current wind gust speed)